Home   Weather   Spa   Past weeks

Flag for Belgium Past Weather in Spa, Belgium — Yesterday and Last 2 Weeks

Now
55 °F

Rain. Low clouds.


Feels Like: 55 °F
Forecast: 54 / 68 °F
Wind: 3 mph from Northwest

Location: Spa / La Sauveniere

Current Time: Jul 25, 2017 at 3:01:24 pm

Latest Report: Jul 25, 2017 at 2:00 pm


Visibility: 1 mi

Pressure: 29.87 "Hg

Humidity: 93%

Dew Point: 53 °F

Location of SpaLocation

Past Weather in Spa — Graph

°F

Spa Temperature Yesterday

Maximum temperature yesterday: 60 °F (at 2:00 pm)
Minimum temperature yesterday: 52 °F (at 7:00 am)
Average temperature yesterday: 54 °F

High & Low Weather Summary for the Past Weeks

 TemperatureHumidityPressure
High81 °F (Jul 18, 7:00 pm)100% (Jul 10, 11:00 pm)30.25 "Hg (Jul 10, 11:00 pm)
Low46 °F (Jul 13, 4:00 am)42% (Jul 21, 2:00 pm)29.76 "Hg (Jul 12, 11:00 am)
Average61 °F70%29.99 "Hg
* Reported Jul 10 3:00 pm — Jul 25 2:00 pm, Spa. Weather by CustomWeather, © 2017

Note: Actual official high and low records may vary slightly from our data, if they occured in-between our weather recording intervals... More about our weather records

Advertising

Spa Weather History for the Previous 24 Hours

Scroll right to see more
 ConditionsComfort  
Time TempWeatherWind HumidityBarometerVisibility
2:00 pm
Tue, Jul 25
55 °FRain. Low clouds.3 mph93%29.87 "Hg1 mi
1:00 pm56 °FPartly sunny.6 mph87%29.86 "Hg17 mi
12:00 pm57 °FPartly sunny.3 mph89%29.87 "HgN/A
11:00 am54 °FFog.5 mph95%29.88 "Hg2 mi
10:00 am54 °FLow clouds.5 mph93%29.88 "Hg1 mi
9:00 am53 °FLow clouds.5 mph93%29.88 "Hg1 mi
8:00 am53 °FLow clouds.5 mph92%29.88 "Hg0 mi
7:00 am53 °FDrizzle. Partly sunny.5 mph95%29.88 "Hg0 mi
6:00 am53 °FDrizzle. Partly sunny.5 mph97%29.88 "Hg0 mi
5:00 am53 °FLow clouds.5 mph94%29.88 "Hg1 mi
4:00 am53 °FLow clouds.5 mph94%29.88 "Hg0 mi
3:00 am53 °FLow clouds.3 mph94%29.89 "Hg0 mi
2:00 am53 °FLow clouds.3 mph95%29.89 "Hg0 mi
1:00 am53 °FLow clouds.3 mph90%29.89 "Hg0 mi
12:00 am53 °FFog.3 mph84%29.89 "Hg2 mi
11:00 pm
Mon, Jul 24
53 °FPassing clouds.2 mph100%29.89 "HgN/A
10:00 pm53 °FPassing clouds.2 mph79%29.89 "HgN/A
9:00 pm53 °FOvercast.1 mph76%29.87 "Hg12 mi
8:00 pm56 °FPassing clouds.1 mph78%29.85 "Hg25 mi
7:00 pm55 °FLow clouds.N/A87%29.85 "Hg19 mi
6:00 pm55 °FPartly sunny.N/A75%29.84 "Hg28 mi
5:00 pm53 °FRain. Partly sunny.N/A89%29.85 "Hg4 mi
4:00 pm55 °FPartly sunny.N/A84%29.84 "Hg19 mi
Weather by CustomWeather, © 2017

See weather overviewHow to use our weather pages